Wind_Speed
31 34 36 34 34 42 48 48 45 36 45 49 46 51 56 54 61 33 28 48 40 37 37 42 42 56 57 32 55 59 56 29 23 39 47 44 48 54 45 23 14 30 20 18
26 27 30 35 36 47 54 48 44 37 45 50 44 41 27 55 61 50 33 47 51 35 33 37 48 50 50 36 41 56 58 33 20 19 33 42 52 49 49 48 22 37 16 14
19 18 25 33 41 51 54 49 39 38 39 57 44 45 22 47 43 53 42 46 39 44 36 36 22 48 40 39 34 44 52 45 53 39 54 33 43 45 48 44 39 29 44 27
17 17 24 33 44 52 54 49 36 39 40 43 47 48 38 36 40 46 44 40 41 43 41 35 35 21 42 37 45 40 44 59 46 55 40 27 44 41 47 49 54 37 44 39
18 17 24 36 46 53 55 51 41 44 23 32 44 49 36 45 48 45 47 49 46 44 41 37 37 31 30 47 42 44 41 39 51 42 42 36 36 42 55 58 48 50 43 36
20 20 25 37 43 55 52 47 36 33 42 37 32 46 54 29 43 39 45 48 45 43 51 46 36 28 34 34 41 41 51 44 36 40 36 33 29 52 47 51 51 46 46 44
26 27 37 46 47 48 43 45 42 36 29 37 35 33 37 48 38 44 54 46 57 56 42 39 38 35 45 26 31 35 41 46 37 22 26 12 34 37 44 34 45 44 42 36
32 33 34 34 36 36 38 40 41 36 37 26 28 35 32 33 38 43 44 45 48 42 33 39 36 33 32 39 38 44 36 43 12 15 28 11 17 22 39 37 41 30 35 32
29 32 30 31 33 35 39 38 36 34 32 32 19 20 28 30 29 29 52 50 42 43 45 42 27 13 16 13 16 43 41 45 44 21 8 13 24 26 25 26 29 32 31 30
23 32 33 34 34 34 36 35 33 31 36 35 23 27 24 29 20 24 38 51 46 55 56 31 28 31 29 12 10 21 33 28 28 26 12 16 21 31 28 23 17 24 22 26
17 23 33 33 32 32 33 34 32 27 28 29 28 32 26 37 34 15 29 34 56 39 42 38 23 25 32 28 37 39 23 18 15 12 7 10 28 25 24 23 18 22 22 25
11 28 30 32 33 32 33 33 33 32 29 26 29 27 28 34 39 38 17 25 34 53 30 21 35 24 28 39 29 37 30 43 27 28 31 10 16 18 15 18 18 27 28 23
15 23 23 35 35 34 34 35 34 31 30 29 30 29 32 35 31 35 34 25 30 44 37 33 39 25 31 29 32 34 38 35 28 27 33 25 14 9 9 16 23 27 30 28
10 12 15 25 30 33 33 32 28 26 27 28 31 28 25 25 31 33 40 34 19 24 43 50 35 32 31 36 27 28 35 39 40 37 25 26 29 25 26 27 31 33 33 32
10 9 8 11 13 19 22 25 23 22 22 13 25 29 27 29 29 28 35 37 27 26 30 42 35 27 39 38 38 33 39 35 42 43 34 26 20 24 27 33 33 33 31 29
2 5 10 10 14 18 19 19 23 22 21 24 22 14 20 25 27 31 28 28 30 33 46 31 24 27 25 13 25 41 41 39 37 36 34 33 24 31 29 26 27 32 32 29
6 8 10 12 13 16 22 19 18 18 22 22 23 21 29 19 15 24 25 28 32 47 32 27 26 21 21 24 30 16 27 33 29 26 23 28 36 37 32 30 28 28 30 29
24 6 13 12 15 17 20 22 5 11 22 24 9 12 13 10 10 23 31 37 38 28 30 35 32 27 29 13 18 15 20 21 22 26 28 27 30 33 32 30 29 28 28 28
21 21 4 11 18 17 22 21 21 12 16 9 11 12 9 8 12 17 17 26 18 18 24 29 34 35 16 25 25 27 33 35 32 29 28 31 32 30 30 28 29 28 25 23
8 14 16 17 16 11 13 17 18 19 25 17 9 13 15 14 16 16 9 8 13 9 14 27 18 17 14 28 30 28 27 30 26 26 30 31 32 33 30 28 27 25 23 24
7 7 6 10 13 12 5 3 3 2 3 9 12 15 16 13 13 12 6 4 5 4 9 11 11 15 18 21 26 31 29 25 23 25 27 27 25 26 26 27 29 29 29 29
5 4 1 5 6 4 3 3 4 2 2 4 13 14 16 16 17 5 5 5 4 2 16 10 12 25 30 28 31 29 25 22 22 28 28 26 26 26 26 25 25 26 25 24
2 3 3 3 2 1 1 2 3 3 2 6 13 15 19 11 6 7 5 3 4 17 6 7 5 22 30 32 28 21 20 20 20 21 23 22 21 21 22 23 22 22 21 20
3 2 2 2 3 4 6 7 3 2 4 9 12 12 6 11 5 5 4 7 5 2 3 3 10 13 19 22 21 22 24 25 24 23 21 20 20 20 20 21 20 19 18 19
2 1 2 3 3 2 2 5 9 9 8 6 7 7 6 7 4 3 5 6 3 5 4 5 8 9 10 17 24 28 28 25 22 21 19 20 20 20 18 20 20 21 20 20
4 1 4 5 6 5 8 10 7 6 8 7 6 4 3 2 3 3 2 5 2 4 11 9 10 11 12 15 18 21 23 22 21 20 20 20 20 19 18 18 17 18 18 20
2 2 1 2 2 5 7 6 4 7 9 6 5 3 3 5 4 3 6 5 7 9 10 8 8 8 9 14 17 19 19 18 18 19 19 19 18 18 19 18 17 17 18 18
Wind_Direction
270 260 251 237 220 199 205 198 205 203 200 211 223 226 213 222 224 201 201 213 218 199 200 203 209 211 215 213 212 205 208 223 214 213 221 227 223 216 205 205 193 231 231 247
271 264 238 221 206 192 200 198 203 205 203 217 218 226 229 219 219 209 202 205 210 204 207 208 213 224 227 211 214 212 205 216 219 234 217 217 215 214 214 220 236 229 204 237
270 255 234 207 193 193 201 191 188 201 208 214 222 218 220 202 199 202 203 201 207 209 215 207 217 223 225 225 224 217 212 213 211 216 222 205 209 208 214 220 225 231 232 232
246 237 218 195 190 197 192 190 186 192 204 215 219 224 225 214 198 205 212 204 204 208 213 223 223 217 217 223 212 213 210 218 219 225 224 217 227 219 215 217 225 222 234 227
243 221 210 196 192 198 191 191 189 196 197 205 221 212 223 224 209 206 209 213 207 207 213 224 233 230 222 214 209 221 221 224 221 233 229 231 240 237 228 228 224 231 233 234
235 205 199 193 196 192 188 198 192 202 208 218 222 220 218 221 221 226 227 220 214 214 222 232 236 244 218 211 220 217 219 225 208 224 217 218 223 226 224 226 223 226 227 231
218 193 195 190 198 190 192 197 200 197 197 212 220 227 224 226 212 220 226 228 225 229 235 233 234 241 249 243 216 217 220 227 198 207 187 212 240 230 212 222 228 227 234 237
204 188 185 186 186 190 197 204 207 210 215 217 226 226 231 224 226 218 215 218 227 217 226 227 235 232 247 244 249 241 222 211 191 182 198 221 216 192 209 214 223 211 222 225
185 187 190 188 191 196 201 209 214 216 212 207 203 212 216 230 233 233 213 213 211 217 222 207 217 218 205 206 203 214 212 209 205 185 187 211 232 179 178 196 226 210 223 228
187 189 188 189 193 199 207 211 217 222 226 224 229 223 234 220 231 251 225 212 217 213 219 210 202 218 234 223 188 164 181 205 187 175 187 218 188 178 190 192 221 212 240 240
187 202 188 192 196 200 210 211 216 225 229 231 234 233 230 238 236 215 228 221 221 225 219 218 220 226 225 226 236 241 219 189 194 188 177 239 188 167 187 228 239 242 235 242
173 187 189 196 198 201 209 210 216 226 229 235 237 235 236 243 249 244 229 212 226 209 227 191 211 215 217 220 215 222 209 214 206 211 223 231 183 204 207 226 240 234 230 227
186 182 210 206 199 201 207 210 212 225 234 240 243 247 241 244 257 262 250 235 219 223 216 201 212 208 213 198 216 217 220 218 216 218 216 196 199 201 226 234 227 227 227 226
192 198 202 202 199 205 210 211 208 221 234 242 247 239 254 239 242 254 251 250 229 233 223 222 221 224 225 222 220 212 208 200 203 213 211 205 229 244 248 228 221 225 230 233
148 164 169 185 195 207 205 203 208 222 228 246 255 251 259 261 262 260 245 251 213 198 222 208 199 212 213 211 214 215 217 213 204 207 218 216 244 250 240 229 232 238 242 246
210 187 179 173 190 195 200 207 218 220 225 224 244 250 274 257 251 243 247 252 226 225 225 207 193 213 212 215 203 214 214 214 226 233 225 233 233 243 231 223 237 248 251 254
210 156 179 193 192 195 200 208 226 224 214 214 232 252 258 266 237 243 235 229 209 202 206 212 219 234 252 231 224 174 197 210 201 210 216 209 216 215 228 239 231 240 244 244
36 183 197 191 207 214 218 215 192 217 212 230 240 239 244 226 275 200 189 203 199 217 214 219 224 213 206 205 228 216 185 189 198 206 215 220 221 225 227 231 238 235 247 251
14 31 79 225 217 215 217 226 227 227 216 210 221 232 222 227 266 230 175 192 179 172 174 184 188 185 195 217 207 194 200 212 205 198 200 211 219 228 234 235 236 244 234 224
19 19 47 56 82 180 212 201 193 217 215 218 213 209 221 226 225 222 192 147 150 174 148 159 182 188 178 170 179 198 204 209 211 211 208 212 219 220 222 229 228 226 227 233
346 15 52 33 31 54 49 80 138 134 225 200 195 203 199 196 183 181 184 142 129 142 150 156 170 168 171 174 187 201 208 212 215 218 222 217 217 213 207 204 211 219 227 235
47 99 36 353 18 26 24 353 352 325 235 189 171 194 198 182 178 145 143 101 95 144 152 161 163 154 164 180 195 205 211 220 212 199 199 200 200 207 215 222 228 233 238 243
315 240 259 260 272 194 200 204 216 276 251 200 187 179 175 145 121 113 93 93 128 135 132 151 175 181 185 193 203 207 196 195 189 190 194 201 207 213 219 225 227 233 239 242
305 291 270 230 228 245 222 198 164 178 175 155 156 154 127 118 103 101 88 124 125 101 136 171 161 181 193 196 184 189 195 198 202 206 208 212 215 214 217 226 229 234 234 220
290 264 267 328 38 50 112 148 132 148 154 158 123 91 96 84 74 98 122 158 136 172 176 198 201 209 201 198 205 209 208 209 213 215 215 212 212 215 220 226 228 215 211 210
317 345 117 79 36 70 124 129 136 144 154 154 146 109 115 110 118 129 107 130 171 192 204 204 205 216 227 231 214 210 210 211 209 209 210 212 211 215 215 209 210 209 205 203
256 211 147 128 147 96 132 125 106 158 155 139 119 111 134 144 156 170 165 197 205 217 224 221 210 211 221 205 199 199 200 203 207 208 207 208 210 214 211 210 207 207 211 214
Height
2852 2852 2853 2857 2864 2876 2888 2890 2896 2914 2921 2925 2921 2926 2931 2944 2953 2959 2961 2973 2977 2980 2991 2996 2999 2997 3003 3013 3023 3031 3037 3048 3048 3048 3053 3057 3060 3060 3065 3069 3073 3073 3073 3070
2842 2840 2841 2847 2855 2866 2875 2882 2891 2906 2913 2908 2912 2922 2926 2931 2939 2951 2957 2964 2971 2978 2985 2991 2993 2994 3002 3011 3014 3015 3030 3035 3042 3046 3050 3045 3046 3057 3063 3065 3067 3061 3070 3063
2832 2832 2834 2839 2848 2859 2868 2876 2887 2898 2902 2904 2908 2916 2914 2923 2932 2942 2950 2955 2968 2973 2977 2980 2983 2988 2996 3003 3010 3017 3024 3023 3018 3011 3014 3037 3043 3045 3051 3057 3056 3056 3050 3063
2827 2827 2830 2835 2843 2852 2859 2865 2875 2885 2891 2898 2903 2908 2917 2920 2925 2936 2945 2950 2957 2962 2968 2972 2977 2982 2990 2997 3005 3010 3014 3009 3014 3014 3024 3031 3037 3038 3040 3040 3041 3048 3048 3054
2819 2821 2825 2832 2840 2846 2851 2858 2870 2880 2887 2894 2900 2905 2908 2911 2922 2927 2934 2941 2947 2956 2957 2964 2969 2975 2982 2985 2992 3000 3002 3002 3012 3011 3017 3024 3025 3025 3027 3030 3035 3039 3044 3046
2812 2815 2820 2827 2836 2840 2846 2859 2870 2879 2884 2889 2892 2894 2902 2908 2916 2922 2931 2936 2945 2952 2950 2964 2970 2971 2975 2979 2984 2988 2993 2995 3000 2999 3011 3018 3015 3001 3017 3022 3027 3032 3030 3040
2805 2811 2816 2820 2830 2839 2848 2856 2864 2871 2878 2884 2887 2893 2897 2904 2911 2919 2924 2929 2940 2943 2958 2960 2963 2964 2964 2968 2968 2977 2980 2990 2989 2992 3001 3001 2990 2998 3008 3014 3018 3024 3028 3037
2797 2808 2816 2823 2831 2839 2848 2855 2862 2869 2875 2881 2885 2890 2895 2901 2906 2907 2910 2922 2932 2946 2952 2953 2957 2957 2957 2959 2962 2966 2970 2977 2978 2982 2987 2989 2990 2993 2997 3003 3006 3013 3020 3028
2800 2809 2817 2825 2832 2839 2847 2853 2861 2867 2872 2877 2882 2885 2892 2895 2897 2900 2903 2914 2926 2937 2941 2940 2942 2947 2943 2950 2953 2956 2963 2967 2974 2976 2982 2982 2980 2989 2995 2999 3000 3007 3013 3019
2805 2810 2817 2825 2832 2840 2845 2852 2858 2864 2868 2873 2878 2880 2883 2886 2891 2894 2899 2905 2913 2920 2925 2924 2932 2938 2942 2944 2945 2945 2948 2960 2958 2966 2974 2974 2977 2985 2984 2994 2993 3002 3006 3010
2806 2811 2818 2825 2831 2838 2843 2850 2856 2861 2863 2868 2873 2876 2879 2884 2888 2889 2895 2900 2899 2903 2910 2916 2922 2930 2932 2935 2936 2941 2949 2952 2957 2964 2969 2971 2974 2979 2980 2986 2992 2994 2998 3001
2806 2811 2818 2823 2830 2836 2841 2846 2852 2856 2861 2864 2868 2871 2873 2876 2879 2883 2884 2888 2897 2900 2898 2902 2916 2921 2922 2923 2930 2933 2940 2939 2951 2960 2963 2967 2969 2973 2975 2981 2985 2988 2990 2995
2808 2813 2818 2821 2825 2831 2837 2842 2850 2853 2856 2860 2863 2865 2867 2871 2873 2875 2883 2886 2889 2893 2891 2896 2907 2911 2916 2915 2919 2925 2931 2937 2945 2952 2956 2960 2962 2965 2970 2973 2978 2983 2986 2991
2811 2813 2816 2819 2823 2829 2834 2839 2845 2851 2855 2857 2858 2861 2865 2867 2868 2870 2873 2880 2881 2884 2888 2889 2892 2900 2907 2911 2916 2918 2921 2929 2931 2938 2946 2955 2956 2959 2964 2969 2973 2977 2981 2984
2813 2815 2818 2821 2825 2829 2833 2838 2843 2847 2854 2853 2851 2853 2858 2860 2862 2863 2867 2871 2874 2878 2880 2882 2886 2892 2901 2903 2908 2911 2914 2918 2922 2927 2935 2941 2949 2955 2959 2963 2966 2971 2975 2977
2818 2819 2820 2822 2825 2829 2834 2838 2841 2844 2848 2851 2852 2849 2849 2852 2855 2858 2861 2861 2866 2871 2874 2874 2875 2885 2895 2895 2895 2899 2907 2913 2918 2923 2932 2937 2945 2952 2953 2956 2960 2963 2966 2967
2819 2821 2823 2824 2826 2829 2833 2836 2840 2842 2846 2847 2849 2849 2849 2848 2850 2849 2851 2853 2858 2861 2866 2867 2873 2882 2887 2889 2892 2893 2899 2909 2912 2919 2925 2931 2933 2940 2947 2952 2953 2956 2959 2962
2821 2820 2823 2825 2826 2829 2831 2834 2837 2838 2841 2844 2846 2845 2844 2845 2846 2847 2847 2850 2854 2850 2856 2864 2869 2876 2882 2882 2888 2894 2899 2905 2909 2914 2919 2925 2930 2934 2939 2944 2945 2948 2952 2953
2828 2824 2822 2824 2826 2827 2829 2833 2835 2837 2842 2840 2840 2841 2840 2839 2839 2843 2840 2843 2845 2849 2850 2855 2863 2868 2871 2877 2884 2888 2894 2901 2905 2906 2913 2921 2926 2929 2931 2934 2940 2943 2947 2948
2833 2831 2828 2827 2827 2827 2828 2830 2833 2834 2835 2836 2835 2835 2836 2840 2837 2838 2843 2844 2846 2851 2850 2853 2861 2863 2866 2873 2882 2889 2892 2898 2899 2899 2907 2913 2917 2920 2925 2930 2933 2938 2941 2943
2834 2834 2833 2832 2830 2830 2831 2831 2831 2832 2832 2833 2832 2833 2835 2837 2839 2840 2842 2843 2845 2845 2848 2852 2858 2861 2865 2870 2877 2882 2886 2889 2892 2898 2901 2906 2912 2916 2921 2926 2929 2931 2932 2936
2836 2835 2835 2834 2834 2833 2834 2834 2833 2832 2831 2830 2831 2832 2834 2836 2839 2841 2842 2841 2843 2846 2850 2852 2857 2862 2859 2861 2869 2874 2879 2883 2887 2893 2898 2903 2908 2913 2917 2920 2922 2925 2929 2931
2837 2837 2836 2835 2835 2834 2834 2834 2833 2832 2831 2831 2832 2834 2836 2838 2839 2840 2842 2844 2845 2845 2845 2850 2852 2854 2860 2868 2873 2873 2877 2881 2886 2893 2898 2901 2904 2908 2911 2913 2916 2919 2924 2926
2836 2835 2835 2835 2834 2834 2833 2833 2833 2833 2833 2833 2834 2835 2837 2839 2839 2839 2840 2844 2844 2844 2844 2847 2852 2857 2860 2864 2866 2869 2875 2882 2886 2889 2893 2895 2898 2902 2905 2908 2911 2915 2918 2921
2835 2835 2833 2832 2832 2831 2831 2832 2834 2834 2835 2835 2835 2835 2836 2837 2838 2840 2842 2844 2845 2845 2847 2849 2852 2855 2858 2862 2866 2871 2875 2879 2882 2884 2887 2890 2894 2898 2901 2903 2906 2910 2913 2916
2833 2833 2833 2833 2832 2832 2831 2832 2833 2834 2836 2837 2837 2838 2839 2840 2842 2842 2842 2843 2844 2846 2846 2850 2853 2856 2859 2861 2864 2866 2869 2873 2876 2879 2884 2888 2892 2895 2897 2900 2903 2906 2910 2913
2833 2833 2832 2832 2832 2833 2833 2834 2834 2835 2837 2837 2839 2840 2842 2844 2844 2844 2844 2846 2847 2847 2849 2851 2853 2855 2856 2859 2861 2863 2866 2869 2872 2876 2880 2884 2887 2890 2893 2896 2900 2903 2906 2909